Preview of NWS' New Version of Forecast
This preview is not operational and should not be used for support decisions.

Regional Weather Roundup (RWR)

Issued by National Weather Service (NWS)

                            
000
ASCA42 TJSJ 191310
RWRPR 
PUERTO RICO/U.S. VIRGIN ISLANDS HOURLY WEATHER ROUNDUP
NATIONAL WEATHER SERVICE SAN JUAN PR
900 AM AST MON AUG 19 2019

PRZ001>002-007>008-010-191400-
PUERTO RICO
  
CITY           SKY/WX    TMP DP  RH WIND       PRES   REMARKS
SAN JUAN LMM   MOSUNNY   82  75  78 E7        30.06R                  
AGUADILLA      SUNNY     84  73  70 E8        30.07R HX  91           
CEIBA          MOSUNNY   84  79  84 E7        30.07R HX  96           
$$

VIZ001>002-191400-
U.S. VIRGIN ISLANDS
  
CITY           SKY/WX    TMP DP  RH WIND       PRES   REMARKS
CHARLOTTE AMA  SUNNY     84  77  79 E15       30.04R HX  94           
CHRISTIANSTED  PTSUNNY   86  77  74 E15       30.05S HX  97           
$$

HOURLY WEATHER ROUNDUP FOR THE NEWS MEDIA
  
CITY           SKY/WX    TMP DP  RH WIND       PRES   REMARKS
ORLANDO        FAIR      82  74  76 E5        30.11R                  
NEW YORK       PTSUNNY   76  76 100 S8        30.00                   
NEWARK         PTSUNNY   79  72  79 W10       29.99S                  
CHICAGO        PTSUNNY   74  66  76 CALM      30.01R                  
HARTFORD       FAIR      81  70  69 SW8       29.98F                  
BOSTON         FAIR      82  67  60 SW12      29.96F                  
DALLAS         MOSUNNY   82  72  71 S9        29.98R                  
PHILADELPHIA   PTSUNNY   80  74  81 SW6       30.00S                  
LOS ANGELES    CLOUDY    67  60  78 CALM      29.95R                  
WASHINGTON DC  FAIR      78  67  68 CALM      30.02R